Weather History for Gustavus, AK

Change the Weather History Date:

Friday, November 15, 2013

  Actual Average Record
Temperature  
Mean Temperature 34 °F -  
Max Temperature 39 °F 40 °F 55 °F (1976)
Min Temperature 28 °F 30 °F -3 °F (1959)
Degree Days  
Heating Degree Days 32    
Moisture  
Dew Point 23 °F    
Average Humidity 64    
Maximum Humidity 87    
Minimum Humidity 32    
Precipitation  
Precipitation 0.00 in - - ()
Sea Level Pressure  
Sea Level Pressure 29.78 in    
Wind  
Wind Speed 6 mph (NNW)    
Max Wind Speed 10 mph    
Max Gust Speed -    
Visibility 10 miles    
Events      
Averages and records for this station are not official NWS values.
T = Trace of Precipitation, MM = Missing Value Source: NWS Daily Summary

Daily Weather History Graph

Daily Weather History Graph

Search for Another Location

Airport:

Trip Planner

Search our weather history database for the weather conditions in past years. The results will help you decide how hot, cold, wet, or windy it might be!

Date:

Astronomy

Nov. 15, 2013 Rise Set
Actual Time 7:52 AM AKST 3:41 PM AKST
Civil Twilight 7:06 AM AKST 4:27 PM AKST
Nautical Twilight 6:17 AM AKST 5:17 PM AKST
Astronomical Twilight 5:30 AM AKST 6:03 PM AKST
Moon 3:02 PM AKST (11/15) 5:34 AM AKST (11/15)
Length of Visible Light 9h 21m
Length of Day
7h 48m
Waxing Gibbous, 97% of the Moon is Illuminated
Nov 15
Waxing Gibbous
Nov 17
Full
Nov 25
Last Quarter
Dec 2
New
Dec 9
First Quarter

Hourly Weather History & Observations

Time (AKST) Temp. Windchill Dew Point Humidity Pressure Visibility Wind Dir Wind Speed Gust Speed Precip Events Conditions
2:56 AM 35.6 °F 31.7 °F 32.0 °F 87% 29.58 in 10.0 mi NNW 4.6 mph - N/A   Overcast
3:16 AM 35.6 °F 31.7 °F 32.0 °F 87% 29.60 in 10.0 mi NNW 4.6 mph - N/A   Mostly Cloudy
3:36 AM 35.6 °F 31.7 °F 30.2 °F 81% 29.60 in 10.0 mi NW 4.6 mph - N/A   Scattered Clouds
3:56 AM 33.8 °F 27.7 °F 30.2 °F 87% 29.61 in 10.0 mi NNW 6.9 mph - N/A   Clear
4:16 AM 33.8 °F 27.0 °F 30.2 °F 87% 29.62 in 10.0 mi NNW 8.1 mph - N/A   Clear
4:36 AM 33.8 °F 27.0 °F 30.2 °F 87% 29.63 in 10.0 mi NNW 8.1 mph - N/A   Clear
4:56 AM 33.8 °F 28.6 °F 28.4 °F 81% 29.63 in 10.0 mi NW 5.8 mph - N/A   Clear
5:16 AM 33.8 °F 29.6 °F 28.4 °F 81% 29.65 in 10.0 mi NNW 4.6 mph - N/A   Clear
5:36 AM 32.0 °F 26.4 °F 28.4 °F 87% 29.66 in 10.0 mi NW 5.8 mph - N/A   Clear
5:56 AM 33.8 °F 27.7 °F 28.4 °F 81% 29.67 in 10.0 mi NNW 6.9 mph - N/A   Clear
6:16 AM 33.8 °F 29.6 °F 26.6 °F 75% 29.68 in 10.0 mi NNW 4.6 mph - N/A   Clear
6:36 AM 33.8 °F - 26.6 °F 75% 29.70 in 10.0 mi Calm Calm - N/A   Clear
6:56 AM 32.0 °F - 26.6 °F 80% 29.72 in 10.0 mi Calm Calm - N/A   Clear
7:16 AM 32.0 °F 27.5 °F 26.6 °F 80% 29.72 in 10.0 mi NW 4.6 mph - N/A   Clear
7:36 AM 32.0 °F 27.5 °F 26.6 °F 80% 29.73 in 10.0 mi NW 4.6 mph - N/A   Clear
7:56 AM 30.2 °F 25.4 °F 26.6 °F 86% 29.73 in 10.0 mi NW 4.6 mph - N/A   Clear
8:16 AM 32.0 °F 27.5 °F 24.8 °F 75% 29.75 in 10.0 mi NW 4.6 mph - N/A   Clear
8:36 AM 33.8 °F 28.6 °F 24.8 °F 70% 29.77 in 10.0 mi NNW 5.8 mph - N/A   Clear
8:56 AM 33.8 °F 28.6 °F 26.6 °F 75% 29.78 in 10.0 mi North 5.8 mph - N/A   Clear
9:16 AM 33.8 °F 28.6 °F 26.6 °F 75% 29.79 in 10.0 mi NNW 5.8 mph - N/A   Clear
9:36 AM 33.8 °F 26.4 °F 26.6 °F 75% 29.80 in 10.0 mi North 9.2 mph - N/A   Clear
9:56 AM 35.6 °F 31.7 °F 26.6 °F 70% 29.80 in 10.0 mi NNW 4.6 mph - N/A   Clear
10:16 AM 35.6 °F 32.8 °F 26.6 °F 70% 29.80 in 10.0 mi NNW 3.5 mph - N/A   Clear
10:36 AM 37.4 °F 31.4 °F 24.8 °F 60% 29.82 in 10.0 mi NNW 8.1 mph - N/A   Clear
10:56 AM 37.4 °F 30.8 °F 23.0 °F 56% 29.83 in 10.0 mi North 9.2 mph - N/A   Clear
11:16 AM 37.4 °F 31.4 °F 24.8 °F 60% 29.84 in 10.0 mi North 8.1 mph - N/A   Clear
11:36 AM 39.2 °F 35.9 °F 21.2 °F 49% 29.84 in 10.0 mi North 4.6 mph - N/A   Clear
11:56 AM 39.2 °F 33.0 °F 21.2 °F 49% 29.85 in 10.0 mi NNW 9.2 mph - N/A   Clear
12:16 PM 39.2 °F 32.5 °F 19.4 °F 45% 29.85 in 10.0 mi NNW 10.4 mph - N/A   Clear
12:36 PM 39.2 °F 33.6 °F 19.4 °F 45% 29.86 in 10.0 mi NW 8.1 mph - N/A   Clear
12:56 PM 39.2 °F 34.2 °F 17.6 °F 42% 29.86 in 10.0 mi NW 6.9 mph - N/A   Clear
1:16 PM 39.2 °F 33.6 °F 17.6 °F 42% 29.86 in 10.0 mi NNW 8.1 mph - N/A   Clear
1:36 PM 39.2 °F 35.0 °F 17.6 °F 42% 29.87 in 10.0 mi NW 5.8 mph - N/A   Clear
1:56 PM 37.4 °F 32.8 °F 17.6 °F 45% 29.86 in 10.0 mi NNW 5.8 mph - N/A   Clear
2:16 PM 37.4 °F 31.4 °F 21.2 °F 52% 29.86 in 10.0 mi NNW 8.1 mph - N/A   Clear
2:36 PM 35.6 °F 29.9 °F 19.4 °F 52% 29.86 in 10.0 mi NNW 6.9 mph - N/A   Clear
2:56 PM 33.8 °F 27.7 °F 21.2 °F 60% 29.86 in 10.0 mi North 6.9 mph - N/A   Clear
3:16 PM 33.8 °F 28.6 °F 19.4 °F 56% 29.86 in 10.0 mi North 5.8 mph - N/A   Clear
3:36 PM 30.2 °F 24.3 °F 21.2 °F 69% 29.86 in 10.0 mi NW 5.8 mph - N/A   Clear
3:56 PM 30.2 °F 23.4 °F 19.4 °F 64% 29.86 in 10.0 mi NNW 6.9 mph - N/A   Clear
4:16 PM 30.2 °F 26.7 °F 15.8 °F 55% 29.86 in 10.0 mi NNW 3.5 mph - N/A   Clear
4:36 PM 32.0 °F 27.5 °F 14.0 °F 48% 29.87 in 10.0 mi NNW 4.6 mph - N/A   Clear
4:56 PM 32.0 °F 25.6 °F 12.2 °F 44% 29.86 in 10.0 mi North 6.9 mph - N/A   Clear
5:16 PM 33.8 °F 30.8 °F 8.6 °F 35% 29.86 in 10.0 mi NNE 3.5 mph - N/A   Clear
5:36 PM 33.8 °F 30.8 °F 8.6 °F 35% 29.86 in 10.0 mi NE 3.5 mph - N/A   Clear
5:56 PM 32.0 °F - 12.2 °F 44% 29.86 in 10.0 mi Calm Calm - N/A   Clear
6:16 PM 28.4 °F 22.2 °F 19.4 °F 69% 29.85 in 10.0 mi North 5.8 mph - N/A   Clear
6:36 PM 33.8 °F 27.7 °F 6.8 °F 32% 29.85 in 10.0 mi North 6.9 mph - N/A   Clear